Voltar ao catálogo

STARLINK-36672

AtivoComunicaçõesSSO
NORAD 68674·PAYLOAD·🇺🇸 United States

Lançado Apr 11, 2026 de Vandenberg Space Force Base

Loading…

Próximas Passagens (próximas 24 horas)

TLE

AtualizadoSource: CelesTrak SupGP

Época: Sep 14, 2026, 22:57 UTC

1 68674C 26077N   26257.95673611  .00065312  00000+0  20283-2 0  2573
2 68674  97.2845 127.9275 0002037  94.7087 258.1490 15.33391757    12

Acompanhe STARLINK-36672 em tempo real com AllMySat

Download on the App Store